Time,TemperatureF,DewpointF,PressureIn,WindDirection,WindDirectionDegrees,WindSpeedMPH,WindSpeedGustMPH,Humidity,HourlyPrecipIn,Conditions,Clouds,dailyrainin,SoftwareType,DateUTC
2013-02-20 00:00:00,41.1,40.3,29.60,SSW,212,0.0,1.0,97,0.00,,,0.43,WeatherCatV1.11B39,2013-02-20 05:00:00,
2013-02-20 00:05:00,41.4,40.6,29.59,South,177,1.0,4.0,97,0.00,,,0.00,WeatherCatV1.11B39,2013-02-20 05:05:00,
2013-02-20 00:10:00,41.5,40.7,29.59,SW,232,0.0,1.0,97,0.00,,,0.00,WeatherCatV1.11B39,2013-02-20 05:10:00,
2013-02-20 00:15:00,41.4,40.3,29.59,SW,225,1.0,2.0,96,0.00,,,0.00,WeatherCatV1.11B39,2013-02-20 05:15:00,
2013-02-20 00:20:00,41.4,40.1,29.59,SSW,197,0.0,1.0,95,0.00,,,0.00,WeatherCatV1.11B39,2013-02-20 05:20:00,
2013-02-20 00:25:00,41.5,39.9,29.59,West,277,0.0,1.0,94,0.00,,,0.00,WeatherCatV1.11B39,2013-02-20 05:25:00,
2013-02-20 00:30:00,41.3,39.7,29.59,West,265,0.0,0.0,94,0.00,,,0.00,WeatherCatV1.11B39,2013-02-20 05:30:00,
2013-02-20 00:35:00,41.3,39.7,29.59,NE,36,0.0,1.0,94,0.00,,,0.00,WeatherCatV1.11B39,2013-02-20 05:35:00,
2013-02-20 00:40:00,41.2,39.6,29.59,NE,36,0.0,0.0,94,0.00,,,0.00,WeatherCatV1.11B39,2013-02-20 05:40:00,
2013-02-20 00:45:00,41.0,39.4,29.58,NE,36,0.0,0.0,94,0.00,,,0.00,WeatherCatV1.11B39,2013-02-20 05:45:00,
2013-02-20 00:50:00,40.8,39.2,29.57,NE,36,0.0,0.0,94,0.00,,,0.00,WeatherCatV1.11B39,2013-02-20 05:50:00,
2013-02-20 00:55:00,40.5,38.6,29.57,ENE,62,0.0,1.0,93,0.00,,,0.00,WeatherCatV1.11B39,2013-02-20 05:55:00,
2013-02-20 01:00:00,40.3,38.7,29.57,ENE,63,0.0,0.0,94,0.00,,,0.00,WeatherCatV1.11B39,2013-02-20 06:00:00,
2013-02-20 01:05:00,40.0,38.4,29.57,ENE,62,0.0,0.0,94,0.00,,,0.00,WeatherCatV1.11B39,2013-02-20 06:05:00,
2013-02-20 01:10:00,39.9,38.3,29.57,ENE,62,0.0,0.0,94,0.00,,,0.00,WeatherCatV1.11B39,2013-02-20 06:10:00,
2013-02-20 01:15:00,39.7,38.1,29.56,ENE,62,0.0,0.0,94,0.00,,,0.00,WeatherCatV1.11B39,2013-02-20 06:15:00,
2013-02-20 01:20:00,39.6,38.3,29.55,ENE,62,0.0,1.0,95,0.00,,,0.00,WeatherCatV1.11B39,2013-02-20 06:20:00,
2013-02-20 01:25:00,39.3,38.0,29.55,ENE,63,0.0,0.0,95,0.00,,,0.00,WeatherCatV1.11B39,2013-02-20 06:25:00,
2013-02-20 01:30:00,39.1,37.8,29.56,SW,233,1.0,2.0,95,0.00,,,0.00,WeatherCatV1.11B39,2013-02-20 06:30:00,
2013-02-20 01:35:00,39.1,38.1,29.57,SW,228,0.0,2.0,96,0.00,,,0.00,WeatherCatV1.11B39,2013-02-20 06:35:00,
2013-02-20 01:40:00,39.1,38.1,29.57,SW,226,0.0,0.0,96,0.00,,,0.00,WeatherCatV1.11B39,2013-02-20 06:40:00,
2013-02-20 01:45:00,39.1,38.1,29.57,SW,226,0.0,0.0,96,0.00,,,0.00,WeatherCatV1.11B39,2013-02-20 06:45:00,
2013-02-20 01:50:00,39.1,38.1,29.56,North,7,0.0,1.0,96,0.00,,,0.00,WeatherCatV1.11B39,2013-02-20 06:50:00,
2013-02-20 01:55:00,39.0,38.0,29.57,SW,214,1.0,1.0,96,0.00,,,0.00,WeatherCatV1.11B39,2013-02-20 06:55:00,
2013-02-20 02:00:00,38.9,37.6,29.57,SSW,211,0.0,0.0,95,0.00,,,0.00,WeatherCatV1.11B39,2013-02-20 07:00:00,
2013-02-20 02:05:00,38.8,37.5,29.57,WNW,287,1.0,2.0,95,0.00,,,0.00,WeatherCatV1.11B39,2013-02-20 07:05:00,
2013-02-20 02:10:00,38.8,37.5,29.57,SW,219,0.0,2.0,95,0.00,,,0.00,WeatherCatV1.11B39,2013-02-20 07:10:00,
2013-02-20 02:15:00,38.7,37.4,29.57,ESE,123,1.0,1.0,95,0.00,,,0.00,WeatherCatV1.11B39,2013-02-20 07:15:00,
2013-02-20 02:20:00,38.8,37.2,29.57,SSW,208,0.0,5.0,94,0.00,,,0.00,WeatherCatV1.11B39,2013-02-20 07:20:00,
2013-02-20 02:25:00,38.8,37.2,29.57,SE,125,1.0,1.0,94,0.00,,,0.00,WeatherCatV1.11B39,2013-02-20 07:25:00,
2013-02-20 02:30:00,38.8,37.0,29.57,ESE,108,1.0,1.0,93,0.00,,,0.00,WeatherCatV1.11B39,2013-02-20 07:30:00,
2013-02-20 02:35:00,38.9,37.1,29.56,SE,127,0.0,1.0,93,0.00,,,0.00,WeatherCatV1.11B39,2013-02-20 07:35:00,
2013-02-20 02:40:00,38.7,36.6,29.56,SE,127,0.0,0.0,92,0.00,,,0.00,WeatherCatV1.11B39,2013-02-20 07:40:00,
2013-02-20 02:45:00,38.4,36.3,29.56,NNE,19,0.0,0.0,92,0.00,,,0.00,WeatherCatV1.11B39,2013-02-20 07:45:00,
2013-02-20 02:50:00,38.2,36.4,29.56,NNE,20,0.0,0.0,93,0.00,,,0.00,WeatherCatV1.11B39,2013-02-20 07:50:00,
2013-02-20 02:55:00,37.9,36.1,29.56,NNE,26,0.0,2.0,93,0.00,,,0.00,WeatherCatV1.11B39,2013-02-20 07:55:00,
2013-02-20 03:00:00,37.7,35.9,29.56,NW,314,0.0,0.0,93,0.00,,,0.00,WeatherCatV1.11B39,2013-02-20 08:00:00,
2013-02-20 03:05:00,37.7,35.9,29.56,SSW,203,0.0,3.0,93,0.00,,,0.00,WeatherCatV1.11B39,2013-02-20 08:05:00,
2013-02-20 03:10:00,37.6,35.8,29.56,SW,236,1.0,1.0,93,0.00,,,0.00,WeatherCatV1.11B39,2013-02-20 08:10:00,
2013-02-20 03:15:00,37.6,35.8,29.56,SE,129,1.0,1.0,93,0.00,,,0.00,WeatherCatV1.11B39,2013-02-20 08:15:00,
2013-02-20 03:20:00,37.5,35.7,29.56,WSW,245,0.0,0.0,93,0.00,,,0.00,WeatherCatV1.11B39,2013-02-20 08:20:00,
2013-02-20 03:25:00,37.5,35.7,29.56,SSW,212,0.0,0.0,93,0.00,,,0.00,WeatherCatV1.11B39,2013-02-20 08:25:00,
2013-02-20 03:30:00,37.4,35.6,29.56,South,191,0.0,0.0,93,0.00,,,0.00,WeatherCatV1.11B39,2013-02-20 08:30:00,
2013-02-20 03:35:00,37.5,35.7,29.56,SSW,200,0.0,1.0,93,0.00,,,0.00,WeatherCatV1.11B39,2013-02-20 08:35:00,
2013-02-20 03:40:00,37.6,35.8,29.56,NE,37,0.0,3.0,93,0.00,,,0.00,WeatherCatV1.11B39,2013-02-20 08:40:00,
2013-02-20 03:45:00,37.8,36.0,29.56,SSW,203,1.0,5.0,93,0.00,,,0.00,WeatherCatV1.11B39,2013-02-20 08:45:00,
2013-02-20 03:50:00,37.9,35.8,29.56,NE,46,1.0,10.0,92,0.00,,,0.00,WeatherCatV1.11B39,2013-02-20 08:50:00,
2013-02-20 03:55:00,37.8,35.1,29.56,SSE,160,5.0,5.0,90,0.00,,,0.00,WeatherCatV1.11B39,2013-02-20 08:55:00,
2013-02-20 04:00:00,37.6,34.7,29.57,West,259,0.0,2.0,89,0.00,,,0.00,WeatherCatV1.11B39,2013-02-20 09:00:00,
2013-02-20 04:05:00,37.3,34.6,29.57,SW,224,1.0,3.0,90,0.00,,,0.00,WeatherCatV1.11B39,2013-02-20 09:05:00,
2013-02-20 04:10:00,37.0,33.8,29.57,SSW,210,2.0,5.0,88,0.00,,,0.00,WeatherCatV1.11B39,2013-02-20 09:10:00,
2013-02-20 04:15:00,36.9,33.7,29.58,NNW,335,3.0,3.0,88,0.00,,,0.00,WeatherCatV1.11B39,2013-02-20 09:15:00,
2013-02-20 04:20:00,36.6,33.1,29.58,SW,227,3.0,7.0,87,0.00,,,0.00,WeatherCatV1.11B39,2013-02-20 09:20:00,
2013-02-20 04:25:00,36.3,32.2,29.58,West,260,2.0,11.0,85,0.00,,,0.00,WeatherCatV1.11B39,2013-02-20 09:25:00,
2013-02-20 04:30:00,36.0,31.6,29.58,SSE,156,0.0,1.0,84,0.00,,,0.00,WeatherCatV1.11B39,2013-02-20 09:30:00,
2013-02-20 04:35:00,35.8,30.9,29.58,SW,219,0.0,4.0,82,0.00,,,0.00,WeatherCatV1.11B39,2013-02-20 09:35:00,
2013-02-20 04:40:00,35.6,31.0,29.58,SW,235,2.0,3.0,83,0.00,,,0.00,WeatherCatV1.11B39,2013-02-20 09:40:00,
2013-02-20 04:45:00,35.4,30.5,29.59,WNW,288,0.0,4.0,82,0.00,,,0.00,WeatherCatV1.11B39,2013-02-20 09:45:00,
2013-02-20 04:50:00,35.2,30.3,29.58,South,177,1.0,4.0,82,0.00,,,0.00,WeatherCatV1.11B39,2013-02-20 09:50:00,
2013-02-20 04:55:00,35.1,30.2,29.59,WSW,243,1.0,3.0,82,0.00,,,0.00,WeatherCatV1.11B39,2013-02-20 09:55:00,
2013-02-20 05:00:00,34.8,29.9,29.59,West,280,0.0,1.0,82,0.00,,,0.00,WeatherCatV1.11B39,2013-02-20 10:00:00,
2013-02-20 05:05:00,34.7,29.8,29.59,NW,321,0.0,2.0,82,0.00,,,0.00,WeatherCatV1.11B39,2013-02-20 10:05:00,
2013-02-20 05:10:00,34.5,29.3,29.59,ENE,69,2.0,5.0,81,0.00,,,0.00,WeatherCatV1.11B39,2013-02-20 10:10:00,
2013-02-20 05:15:00,34.5,29.0,29.59,SW,217,2.0,9.0,80,0.00,,,0.00,WeatherCatV1.11B39,2013-02-20 10:15:00,
2013-02-20 05:20:00,34.4,28.9,29.59,North,1,1.0,3.0,80,0.00,,,0.00,WeatherCatV1.11B39,2013-02-20 10:20:00,
2013-02-20 05:25:00,34.3,28.8,29.59,SSW,204,1.0,3.0,80,0.00,,,0.00,WeatherCatV1.11B39,2013-02-20 10:25:00,
2013-02-20 05:30:00,34.1,28.6,29.59,SW,226,0.0,1.0,80,0.00,,,0.00,WeatherCatV1.11B39,2013-02-20 10:30:00,
2013-02-20 05:35:00,33.9,28.4,29.60,North,9,4.0,6.0,80,0.00,,,0.00,WeatherCatV1.11B39,2013-02-20 10:35:00,
2013-02-20 05:40:00,33.8,28.0,29.60,WSW,240,4.0,10.0,79,0.00,,,0.00,WeatherCatV1.11B39,2013-02-20 10:40:00,
2013-02-20 05:45:00,33.7,27.6,29.60,WSW,238,2.0,5.0,78,0.00,,,0.00,WeatherCatV1.11B39,2013-02-20 10:45:00,
2013-02-20 05:50:00,33.5,27.1,29.60,NNE,29,2.0,8.0,77,0.00,,,0.00,WeatherCatV1.11B39,2013-02-20 10:50:00,
2013-02-20 05:55:00,33.4,26.7,29.61,NNW,329,1.0,4.0,76,0.00,,,0.00,WeatherCatV1.11B39,2013-02-20 10:55:00,
2013-02-20 06:00:00,33.2,26.5,29.61,NW,322,0.0,4.0,76,0.00,,,0.00,WeatherCatV1.11B39,2013-02-20 11:00:00,
2013-02-20 06:05:00,33.0,26.3,29.61,North,6,2.0,6.0,76,0.00,,,0.00,WeatherCatV1.11B39,2013-02-20 11:05:00,
2013-02-20 06:10:00,32.9,25.9,29.61,WSW,243,0.0,6.0,75,0.00,,,0.00,WeatherCatV1.11B39,2013-02-20 11:10:00,
2013-02-20 06:15:00,32.8,25.8,29.61,SW,233,2.0,6.0,75,0.00,,,0.00,WeatherCatV1.11B39,2013-02-20 11:15:00,
2013-02-20 06:20:00,32.7,25.3,29.61,SSW,210,2.0,3.0,74,0.00,,,0.00,WeatherCatV1.11B39,2013-02-20 11:20:00,
2013-02-20 06:25:00,32.5,24.8,29.61,SW,232,2.0,4.0,73,0.00,,,0.00,WeatherCatV1.11B39,2013-02-20 11:25:00,
2013-02-20 06:30:00,32.5,24.8,29.61,SW,221,1.0,3.0,73,0.00,,,0.00,WeatherCatV1.11B39,2013-02-20 11:30:00,
2013-02-20 06:35:00,32.5,24.8,29.62,East,86,1.0,4.0,73,0.00,,,0.00,WeatherCatV1.11B39,2013-02-20 11:35:00,
2013-02-20 06:40:00,32.5,24.5,29.62,SSW,195,0.0,2.0,72,0.00,,,0.00,WeatherCatV1.11B39,2013-02-20 11:40:00,
2013-02-20 06:45:00,32.5,24.5,29.62,West,281,0.0,2.0,72,0.00,,,0.00,WeatherCatV1.11B39,2013-02-20 11:45:00,
2013-02-20 06:50:00,32.5,24.5,29.63,ESE,117,1.0,3.0,72,0.00,,,0.00,WeatherCatV1.11B39,2013-02-20 11:50:00,
2013-02-20 06:55:00,32.5,23.8,29.63,West,262,4.0,9.0,70,0.00,,,0.00,WeatherCatV1.11B39,2013-02-20 11:55:00,
2013-02-20 07:00:00,32.5,23.5,29.63,East,98,2.0,10.0,69,0.00,,,0.00,WeatherCatV1.11B39,2013-02-20 12:00:00,
2013-02-20 07:05:00,32.5,23.5,29.64,SW,219,3.0,4.0,69,0.00,,,0.00,WeatherCatV1.11B39,2013-02-20 12:05:00,
2013-02-20 07:10:00,32.4,23.4,29.64,SSW,205,1.0,3.0,69,0.00,,,0.00,WeatherCatV1.11B39,2013-02-20 12:10:00,
2013-02-20 07:15:00,32.3,23.3,29.64,SSE,167,1.0,5.0,69,0.00,,,0.00,WeatherCatV1.11B39,2013-02-20 12:15:00,
2013-02-20 07:20:00,32.3,22.9,29.65,WSW,240,1.0,4.0,68,0.00,,,0.00,WeatherCatV1.11B39,2013-02-20 12:20:00,
2013-02-20 07:25:00,32.2,22.5,29.65,SSE,157,0.0,2.0,67,0.00,,,0.00,WeatherCatV1.11B39,2013-02-20 12:25:00,
2013-02-20 07:30:00,32.0,22.3,29.65,WNW,296,1.0,8.0,67,0.00,,,0.00,WeatherCatV1.11B39,2013-02-20 12:30:00,
2013-02-20 07:35:00,31.7,22.0,29.65,WSW,246,4.0,4.0,67,0.00,,,0.00,WeatherCatV1.11B39,2013-02-20 12:35:00,
2013-02-20 07:40:00,31.4,21.4,29.65,SW,224,1.0,6.0,66,0.00,,,0.00,WeatherCatV1.11B39,2013-02-20 12:40:00,
2013-02-20 07:45:00,31.2,21.2,29.66,SSW,207,3.0,4.0,66,0.00,,,0.00,WeatherCatV1.11B39,2013-02-20 12:45:00,
2013-02-20 07:50:00,31.4,21.4,29.66,SSE,150,4.0,7.0,66,0.00,,,0.00,WeatherCatV1.11B39,2013-02-20 12:50:00,
2013-02-20 07:55:00,31.6,21.2,29.66,South,177,4.0,7.0,65,0.00,,,0.00,WeatherCatV1.11B39,2013-02-20 12:55:00,
2013-02-20 08:00:00,31.7,21.3,29.66,ENE,57,1.0,4.0,65,0.00,,,0.00,WeatherCatV1.11B39,2013-02-20 13:00:00,
2013-02-20 08:05:00,32.0,21.2,29.66,North,354,1.0,9.0,64,0.00,,,0.00,WeatherCatV1.11B39,2013-02-20 13:05:00,
2013-02-20 08:10:00,32.2,21.0,29.66,SW,217,2.0,5.0,63,0.00,,,0.00,WeatherCatV1.11B39,2013-02-20 13:10:00,
2013-02-20 08:15:00,32.3,21.1,29.66,ENE,75,2.0,6.0,63,0.00,,,0.00,WeatherCatV1.11B39,2013-02-20 13:15:00,
2013-02-20 08:20:00,32.4,20.9,29.66,South,191,0.0,4.0,62,0.00,,,0.00,WeatherCatV1.11B39,2013-02-20 13:20:00,
2013-02-20 08:25:00,32.5,20.9,29.66,SSE,153,3.0,4.0,62,0.00,,,0.00,WeatherCatV1.11B39,2013-02-20 13:25:00,
2013-02-20 08:30:00,32.6,21.0,29.66,WSW,255,1.0,4.0,62,0.00,,,0.00,WeatherCatV1.11B39,2013-02-20 13:30:00,
2013-02-20 08:35:00,32.6,21.0,29.66,SSE,160,2.0,3.0,62,0.00,,,0.00,WeatherCatV1.11B39,2013-02-20 13:35:00,
2013-02-20 08:40:00,32.8,20.9,29.66,SSE,168,5.0,8.0,61,0.00,,,0.00,WeatherCatV1.11B39,2013-02-20 13:40:00,
2013-02-20 08:45:00,32.9,20.6,29.66,East,94,3.0,9.0,60,0.00,,,0.00,WeatherCatV1.11B39,2013-02-20 13:45:00,
2013-02-20 08:50:00,33.0,20.7,29.66,SW,226,4.0,8.0,60,0.00,,,0.00,WeatherCatV1.11B39,2013-02-20 13:50:00,
2013-02-20 08:55:00,33.1,20.4,29.65,WSW,246,4.0,15.0,59,0.00,,,0.00,WeatherCatV1.11B39,2013-02-20 13:55:00,
2013-02-20 09:00:00,33.1,20.4,29.66,SW,235,5.0,7.0,59,0.00,,,0.00,WeatherCatV1.11B39,2013-02-20 14:00:00,
2013-02-20 09:05:00,33.3,20.5,29.66,WSW,256,2.0,5.0,59,0.00,,,0.00,WeatherCatV1.11B39,2013-02-20 14:05:00,
2013-02-20 09:10:00,33.5,20.3,29.66,SW,227,4.0,5.0,58,0.00,,,0.00,WeatherCatV1.11B39,2013-02-20 14:10:00,
2013-02-20 09:15:00,33.8,20.2,29.66,South,173,2.0,6.0,57,0.00,,,0.00,WeatherCatV1.11B39,2013-02-20 14:15:00,
2013-02-20 09:20:00,34.1,20.5,29.66,South,191,4.0,7.0,57,0.00,,,0.00,WeatherCatV1.11B39,2013-02-20 14:20:00,
2013-02-20 09:25:00,34.0,20.0,29.66,SSW,210,0.0,6.0,56,0.00,,,0.00,WeatherCatV1.11B39,2013-02-20 14:25:00,
2013-02-20 09:30:00,34.4,20.3,29.67,SW,228,2.0,4.0,56,0.00,,,0.00,WeatherCatV1.11B39,2013-02-20 14:30:00,
2013-02-20 09:35:00,34.6,20.5,29.67,South,176,1.0,5.0,56,0.00,,,0.00,WeatherCatV1.11B39,2013-02-20 14:35:00,
2013-02-20 09:40:00,34.6,20.5,29.66,WSW,253,0.0,4.0,56,0.00,,,0.00,WeatherCatV1.11B39,2013-02-20 14:40:00,
2013-02-20 09:45:00,34.9,20.0,29.67,WSW,253,1.0,8.0,54,0.00,,,0.00,WeatherCatV1.11B39,2013-02-20 14:45:00,
2013-02-20 09:50:00,34.9,20.0,29.66,South,187,9.0,9.0,54,0.00,,,0.00,WeatherCatV1.11B39,2013-02-20 14:50:00,
2013-02-20 09:55:00,34.7,19.8,29.66,SSW,201,6.0,8.0,54,0.00,,,0.00,WeatherCatV1.11B39,2013-02-20 14:55:00,
2013-02-20 10:00:00,34.9,19.5,29.66,West,259,1.0,7.0,53,0.00,,,0.00,WeatherCatV1.11B39,2013-02-20 15:00:00,
2013-02-20 10:05:00,35.0,20.1,29.66,East,96,1.0,7.0,54,0.00,,,0.00,WeatherCatV1.11B39,2013-02-20 15:05:00,
2013-02-20 10:10:00,34.8,19.4,29.66,SE,139,3.0,8.0,53,0.00,,,0.00,WeatherCatV1.11B39,2013-02-20 15:10:00,
2013-02-20 10:15:00,34.6,19.7,29.67,NNE,27,3.0,10.0,54,0.00,,,0.00,WeatherCatV1.11B39,2013-02-20 15:15:00,
2013-02-20 10:20:00,34.7,19.3,29.66,WNW,294,2.0,8.0,53,0.00,,,0.00,WeatherCatV1.11B39,2013-02-20 15:20:00,
2013-02-20 10:25:00,34.5,18.7,29.67,NNW,343,6.0,11.0,52,0.00,,,0.00,WeatherCatV1.11B39,2013-02-20 15:25:00,
2013-02-20 10:30:00,34.4,18.6,29.67,North,8,4.0,13.0,52,0.00,,,0.00,WeatherCatV1.11B39,2013-02-20 15:30:00,
2013-02-20 10:35:00,34.3,18.5,29.67,SW,222,3.0,5.0,52,0.00,,,0.00,WeatherCatV1.11B39,2013-02-20 15:35:00,
2013-02-20 10:40:00,34.3,18.5,29.67,NW,307,0.0,9.0,52,0.00,,,0.00,WeatherCatV1.11B39,2013-02-20 15:40:00,
2013-02-20 10:45:00,34.7,19.3,29.67,SW,225,1.0,4.0,53,0.00,,,0.00,WeatherCatV1.11B39,2013-02-20 15:45:00,
2013-02-20 10:50:00,34.8,19.0,29.67,SSW,204,1.0,7.0,52,0.00,,,0.00,WeatherCatV1.11B39,2013-02-20 15:50:00,
2013-02-20 10:55:00,34.5,18.7,29.67,WSW,255,5.0,5.0,52,0.00,,,0.00,WeatherCatV1.11B39,2013-02-20 15:55:00,
2013-02-20 11:00:00,34.5,18.3,29.67,NW,319,1.0,10.0,51,0.00,,,0.00,WeatherCatV1.11B39,2013-02-20 16:00:00,
2013-02-20 11:05:00,34.4,17.7,29.67,NW,315,0.0,4.0,50,0.00,,,0.00,WeatherCatV1.11B39,2013-02-20 16:05:00,
2013-02-20 11:10:00,34.8,18.1,29.67,North,11,5.0,8.0,50,0.00,,,0.00,WeatherCatV1.11B39,2013-02-20 16:10:00,
2013-02-20 11:15:00,35.1,17.9,29.67,NNE,27,4.0,8.0,49,0.00,,,0.00,WeatherCatV1.11B39,2013-02-20 16:15:00,
2013-02-20 11:20:00,35.5,18.3,29.67,West,276,2.0,4.0,49,0.00,,,0.00,WeatherCatV1.11B39,2013-02-20 16:20:00,
2013-02-20 11:25:00,35.3,18.1,29.67,NNE,18,3.0,4.0,49,0.00,,,0.00,WeatherCatV1.11B39,2013-02-20 16:25:00,
2013-02-20 11:30:00,35.1,18.4,29.67,NE,54,1.0,8.0,50,0.00,,,0.00,WeatherCatV1.11B39,2013-02-20 16:30:00,
2013-02-20 11:35:00,34.7,17.5,29.67,SSW,211,2.0,9.0,49,0.00,,,0.00,WeatherCatV1.11B39,2013-02-20 16:35:00,
2013-02-20 11:40:00,34.5,17.8,29.67,NE,41,6.0,8.0,50,0.00,,,0.00,WeatherCatV1.11B39,2013-02-20 16:40:00,
2013-02-20 11:45:00,34.4,17.7,29.67,WSW,243,2.0,2.0,50,0.00,,,0.00,WeatherCatV1.11B39,2013-02-20 16:45:00,
2013-02-20 11:50:00,34.8,18.1,29.67,SSW,200,2.0,9.0,50,0.00,,,0.00,WeatherCatV1.11B39,2013-02-20 16:50:00,
2013-02-20 11:55:00,34.7,17.5,29.67,WNW,284,1.0,8.0,49,0.00,,,0.00,WeatherCatV1.11B39,2013-02-20 16:55:00,
2013-02-20 12:00:00,34.6,16.9,29.67,SSE,159,2.0,13.0,48,0.00,,,0.00,WeatherCatV1.11B39,2013-02-20 17:00:00,
2013-02-20 12:05:00,34.7,17.5,29.66,NW,310,2.0,6.0,49,0.00,,,0.00,WeatherCatV1.11B39,2013-02-20 17:05:00,
2013-02-20 12:10:00,34.6,16.9,29.66,NNE,19,3.0,7.0,48,0.00,,,0.00,WeatherCatV1.11B39,2013-02-20 17:10:00,
2013-02-20 12:15:00,34.7,17.0,29.66,NW,319,6.0,11.0,48,0.00,,,0.00,WeatherCatV1.11B39,2013-02-20 17:15:00,
2013-02-20 12:20:00,34.8,16.6,29.66,SSE,149,2.0,4.0,47,0.00,,,0.00,WeatherCatV1.11B39,2013-02-20 17:20:00,
2013-02-20 12:25:00,34.8,16.6,29.66,WNW,288,3.0,8.0,47,0.00,,,0.00,WeatherCatV1.11B39,2013-02-20 17:25:00,
2013-02-20 12:30:00,34.7,16.6,29.66,SW,232,4.0,6.0,47,0.00,,,0.00,WeatherCatV1.11B39,2013-02-20 17:30:00,
2013-02-20 12:35:00,34.7,16.6,29.66,SW,235,0.0,6.0,47,0.00,,,0.00,WeatherCatV1.11B39,2013-02-20 17:35:00,
2013-02-20 12:40:00,34.4,15.8,29.65,NNW,337,5.0,6.0,46,0.00,,,0.00,WeatherCatV1.11B39,2013-02-20 17:40:00,
2013-02-20 12:45:00,34.1,16.5,29.66,SSW,204,1.0,3.0,48,0.00,,,0.00,WeatherCatV1.11B39,2013-02-20 17:45:00,
2013-02-20 12:50:00,34.0,16.4,29.65,NW,306,2.0,5.0,48,0.00,,,0.00,WeatherCatV1.11B39,2013-02-20 17:50:00,
2013-02-20 12:55:00,33.7,16.1,29.65,ESE,108,1.0,5.0,48,0.00,,,0.00,WeatherCatV1.11B39,2013-02-20 17:55:00,
2013-02-20 13:00:00,33.6,15.5,29.65,SSE,153,2.0,7.0,47,0.00,,,0.00,WeatherCatV1.11B39,2013-02-20 18:00:00,
2013-02-20 13:05:00,33.5,15.9,29.65,WSW,250,4.0,5.0,48,0.00,,,0.00,WeatherCatV1.11B39,2013-02-20 18:05:00,
2013-02-20 13:10:00,33.4,15.4,29.65,West,273,3.0,6.0,47,0.00,,,0.00,WeatherCatV1.11B39,2013-02-20 18:10:00,
2013-02-20 13:15:00,33.7,15.6,29.65,NNW,339,2.0,7.0,47,0.00,,,0.00,WeatherCatV1.11B39,2013-02-20 18:15:00,
2013-02-20 13:20:00,34.0,15.4,29.65,SW,216,1.0,4.0,46,0.00,,,0.00,WeatherCatV1.11B39,2013-02-20 18:20:00,
2013-02-20 13:25:00,34.0,15.9,29.65,NNW,335,2.0,6.0,47,0.00,,,0.00,WeatherCatV1.11B39,2013-02-20 18:25:00,
2013-02-20 13:30:00,33.9,15.3,29.64,North,6,7.0,11.0,46,0.00,,,0.00,WeatherCatV1.11B39,2013-02-20 18:30:00,
2013-02-20 13:35:00,33.7,15.6,29.65,NNW,338,0.0,8.0,47,0.00,,,0.00,WeatherCatV1.11B39,2013-02-20 18:35:00,
2013-02-20 13:40:00,33.6,15.1,29.65,WSW,257,1.0,5.0,46,0.00,,,0.00,WeatherCatV1.11B39,2013-02-20 18:40:00,
2013-02-20 13:45:00,33.6,15.1,29.65,SW,236,1.0,13.0,46,0.00,,,0.00,WeatherCatV1.11B39,2013-02-20 18:45:00,
2013-02-20 13:50:00,33.5,14.5,29.65,NNE,22,2.0,4.0,45,0.00,,,0.00,WeatherCatV1.11B39,2013-02-20 18:50:00,
2013-02-20 13:55:00,33.4,14.9,29.65,SSW,210,0.0,1.0,46,0.00,,,0.00,WeatherCatV1.11B39,2013-02-20 18:55:00,
2013-02-20 14:00:00,33.4,14.4,29.65,SW,217,1.0,6.0,45,0.00,,,0.00,WeatherCatV1.11B39,2013-02-20 19:00:00,
2013-02-20 14:05:00,33.3,14.8,29.65,SSW,196,1.0,1.0,46,0.00,,,0.00,WeatherCatV1.11B39,2013-02-20 19:05:00,
2013-02-20 14:10:00,33.2,14.2,29.65,WSW,246,1.0,7.0,45,0.00,,,0.00,WeatherCatV1.11B39,2013-02-20 19:10:00,
2013-02-20 14:15:00,33.2,14.2,29.65,NNW,337,3.0,6.0,45,0.00,,,0.00,WeatherCatV1.11B39,2013-02-20 19:15:00,
2013-02-20 14:20:00,33.1,14.1,29.66,SW,228,2.0,10.0,45,0.00,,,0.00,WeatherCatV1.11B39,2013-02-20 19:20:00,
2013-02-20 14:25:00,33.1,14.1,29.66,North,7,2.0,5.0,45,0.00,,,0.00,WeatherCatV1.11B39,2013-02-20 19:25:00,
2013-02-20 14:30:00,33.0,13.5,29.65,NNE,13,5.0,6.0,44,0.00,,,0.00,WeatherCatV1.11B39,2013-02-20 19:30:00,
2013-02-20 14:35:00,32.9,14.4,29.66,SSW,206,4.0,5.0,46,0.00,,,0.00,WeatherCatV1.11B39,2013-02-20 19:35:00,
2013-02-20 14:40:00,32.8,13.3,29.65,NNE,25,3.0,13.0,44,0.00,,,0.00,WeatherCatV1.11B39,2013-02-20 19:40:00,
2013-02-20 14:45:00,32.9,14.4,29.66,SSW,197,1.0,6.0,46,0.00,,,0.00,WeatherCatV1.11B39,2013-02-20 19:45:00,
2013-02-20 14:50:00,33.4,13.9,29.66,SW,224,1.0,7.0,44,0.00,,,0.00,WeatherCatV1.11B39,2013-02-20 19:50:00,
2013-02-20 14:55:00,33.3,13.8,29.66,NNW,340,5.0,10.0,44,0.00,,,0.00,WeatherCatV1.11B39,2013-02-20 19:55:00,
2013-02-20 15:00:00,33.1,13.6,29.66,SSW,201,2.0,3.0,44,0.00,,,0.00,WeatherCatV1.11B39,2013-02-20 20:00:00,
2013-02-20 15:05:00,34.2,14.1,29.66,WSW,240,2.0,5.0,43,0.00,,,0.00,WeatherCatV1.11B39,2013-02-20 20:05:00,
2013-02-20 15:10:00,35.1,14.3,29.66,WSW,245,5.0,13.0,42,0.00,,,0.00,WeatherCatV1.11B39,2013-02-20 20:10:00,
2013-02-20 15:15:00,34.8,13.5,29.67,NW,305,1.0,7.0,41,0.00,,,0.00,WeatherCatV1.11B39,2013-02-20 20:15:00,
2013-02-20 15:20:00,34.7,14.0,29.66,SW,215,3.0,5.0,42,0.00,,,0.00,WeatherCatV1.11B39,2013-02-20 20:20:00,
2013-02-20 15:25:00,35.2,13.3,29.67,SSW,205,1.0,6.0,40,0.00,,,0.00,WeatherCatV1.11B39,2013-02-20 20:25:00,
2013-02-20 15:30:00,35.4,14.1,29.67,North,0,4.0,8.0,41,0.00,,,0.00,WeatherCatV1.11B39,2013-02-20 20:30:00,
2013-02-20 15:35:00,35.1,12.7,29.67,SSW,193,2.0,13.0,39,0.00,,,0.00,WeatherCatV1.11B39,2013-02-20 20:35:00,
2013-02-20 15:40:00,34.8,12.4,29.67,North,11,4.0,7.0,39,0.00,,,0.00,WeatherCatV1.11B39,2013-02-20 20:40:00,
2013-02-20 15:45:00,34.6,12.2,29.67,SW,225,1.0,10.0,39,0.00,,,0.00,WeatherCatV1.11B39,2013-02-20 20:45:00,
2013-02-20 15:50:00,34.8,13.0,29.67,ENE,72,1.0,7.0,40,0.00,,,0.00,WeatherCatV1.11B39,2013-02-20 20:50:00,
2013-02-20 15:55:00,34.9,11.9,29.67,NNE,30,12.0,12.0,38,0.00,,,0.00,WeatherCatV1.11B39,2013-02-20 20:55:00,
2013-02-20 16:00:00,34.3,11.9,29.67,SW,234,5.0,11.0,39,0.00,,,0.00,WeatherCatV1.11B39,2013-02-20 21:00:00,
2013-02-20 16:05:00,33.8,12.1,29.67,North,354,1.0,6.0,40,0.00,,,0.00,WeatherCatV1.11B39,2013-02-20 21:05:00,
2013-02-20 16:10:00,33.3,12.2,29.67,South,173,0.0,10.0,41,0.00,,,0.00,WeatherCatV1.11B39,2013-02-20 21:10:00,
2013-02-20 16:15:00,32.9,11.3,29.67,NW,320,3.0,8.0,40,0.00,,,0.00,WeatherCatV1.11B39,2013-02-20 21:15:00,
2013-02-20 16:20:00,32.6,11.5,29.68,WSW,243,3.0,9.0,41,0.00,,,0.00,WeatherCatV1.11B39,2013-02-20 21:20:00,
2013-02-20 16:25:00,32.3,11.8,29.68,SW,228,1.0,2.0,42,0.00,,,0.00,WeatherCatV1.11B39,2013-02-20 21:25:00,
2013-02-20 16:30:00,32.1,12.2,29.68,WSW,245,0.0,6.0,43,0.00,,,0.00,WeatherCatV1.11B39,2013-02-20 21:30:00,
2013-02-20 16:35:00,32.0,12.1,29.68,West,276,1.0,5.0,43,0.00,,,0.00,WeatherCatV1.11B39,2013-02-20 21:35:00,
2013-02-20 16:40:00,31.8,12.4,29.68,SW,230,2.0,3.0,44,0.00,,,0.00,WeatherCatV1.11B39,2013-02-20 21:40:00,
2013-02-20 16:45:00,31.6,12.2,29.68,South,180,2.0,4.0,44,0.00,,,0.00,WeatherCatV1.11B39,2013-02-20 21:45:00,
2013-02-20 16:50:00,31.4,12.0,29.68,SSW,209,1.0,4.0,44,0.00,,,0.00,WeatherCatV1.11B39,2013-02-20 21:50:00,
2013-02-20 16:55:00,31.0,11.2,29.69,SW,225,8.0,13.0,43,0.00,,,0.00,WeatherCatV1.11B39,2013-02-20 21:55:00,
2013-02-20 17:00:00,30.8,11.0,29.69,NNW,333,2.0,15.0,43,0.00,,,0.00,WeatherCatV1.11B39,2013-02-20 22:00:00,
2013-02-20 17:14:00,30.1,11.8,29.69,NE,46,0.0,3.0,46,0.00,,,0.00,WeatherCatV1.11B39,2013-02-20 22:14:00,
2013-02-20 17:19:00,30.0,11.8,29.69,SSW,203,1.0,13.0,46,0.00,,,0.00,WeatherCatV1.11B39,2013-02-20 22:19:00,
2013-02-20 17:24:00,29.8,12.1,29.70,ESE,120,1.0,8.0,47,0.00,,,0.00,WeatherCatV1.11B39,2013-02-20 22:24:00,
2013-02-20 17:30:00,29.6,11.4,29.70,NNW,337,0.0,2.0,46,0.00,,,0.00,WeatherCatV1.11B39,2013-02-20 22:30:00,
2013-02-20 17:35:00,29.5,11.8,29.71,North,4,3.0,5.0,47,0.00,,,0.00,WeatherCatV1.11B39,2013-02-20 22:35:00,
2013-02-20 17:40:00,29.3,11.6,29.71,SSW,194,1.0,5.0,47,0.00,,,0.00,WeatherCatV1.11B39,2013-02-20 22:40:00,
2013-02-20 17:45:00,29.2,12.0,29.71,NNW,329,2.0,5.0,48,0.00,,,0.00,WeatherCatV1.11B39,2013-02-20 22:45:00,
2013-02-20 17:50:00,29.0,11.8,29.71,North,6,2.0,3.0,48,0.00,,,0.00,WeatherCatV1.11B39,2013-02-20 22:50:00,
2013-02-20 17:55:00,28.9,11.7,29.71,NNW,328,2.0,11.0,48,0.00,,,0.00,WeatherCatV1.11B39,2013-02-20 22:55:00,
2013-02-20 18:00:00,28.8,12.1,29.71,SW,233,2.0,5.0,49,0.00,,,0.00,WeatherCatV1.11B39,2013-02-20 23:00:00,
2013-02-20 18:05:00,28.7,12.0,29.72,North,6,2.0,3.0,49,0.00,,,0.00,WeatherCatV1.11B39,2013-02-20 23:05:00,
2013-02-20 18:10:00,28.6,11.9,29.72,South,188,1.0,2.0,49,0.00,,,0.00,WeatherCatV1.11B39,2013-02-20 23:10:00,
2013-02-20 18:15:00,28.5,12.3,29.72,ESE,115,0.0,3.0,50,0.00,,,0.00,WeatherCatV1.11B39,2013-02-20 23:15:00,
2013-02-20 18:20:00,28.4,12.2,29.72,SSW,194,2.0,5.0,50,0.00,,,0.00,WeatherCatV1.11B39,2013-02-20 23:20:00,
2013-02-20 18:25:00,28.3,12.1,29.72,South,173,0.0,4.0,50,0.00,,,0.00,WeatherCatV1.11B39,2013-02-20 23:25:00,
2013-02-20 18:30:00,28.3,12.1,29.72,South,174,1.0,8.0,50,0.00,,,0.00,WeatherCatV1.11B39,2013-02-20 23:30:00,
2013-02-20 18:35:00,28.2,12.0,29.72,WSW,243,0.0,6.0,50,0.00,,,0.00,WeatherCatV1.11B39,2013-02-20 23:35:00,
2013-02-20 18:40:00,28.1,11.9,29.73,SW,231,2.0,7.0,50,0.00,,,0.00,WeatherCatV1.11B39,2013-02-20 23:40:00,
2013-02-20 18:45:00,28.0,11.8,29.73,East,94,3.0,5.0,50,0.00,,,0.00,WeatherCatV1.11B39,2013-02-20 23:45:00,
2013-02-20 18:50:00,27.9,11.7,29.73,SSE,153,0.0,5.0,50,0.00,,,0.00,WeatherCatV1.11B39,2013-02-20 23:50:00,
2013-02-20 18:55:00,27.8,12.1,29.73,SSE,150,0.0,0.0,51,0.00,,,0.00,WeatherCatV1.11B39,2013-02-20 23:55:00,
2013-02-20 19:00:00,27.7,12.0,29.73,SE,134,1.0,6.0,51,0.00,,,0.00,WeatherCatV1.11B39,2013-02-21 00:00:00,
2013-02-20 19:05:00,27.7,12.0,29.73,NW,314,2.0,5.0,51,0.00,,,0.00,WeatherCatV1.11B39,2013-02-21 00:05:00,
2013-02-20 19:10:00,27.6,11.9,29.73,SW,217,0.0,11.0,51,0.00,,,0.00,WeatherCatV1.11B39,2013-02-21 00:10:00,
2013-02-20 19:15:00,27.6,11.9,29.73,NNW,339,0.0,9.0,51,0.00,,,0.00,WeatherCatV1.11B39,2013-02-21 00:15:00,
2013-02-20 19:20:00,27.5,11.8,29.73,SSW,203,2.0,5.0,51,0.00,,,0.00,WeatherCatV1.11B39,2013-02-21 00:20:00,
2013-02-20 19:25:00,27.5,11.8,29.73,SSW,212,5.0,6.0,51,0.00,,,0.00,WeatherCatV1.11B39,2013-02-21 00:25:00,
2013-02-20 19:30:00,27.5,12.2,29.73,NE,54,1.0,2.0,52,0.00,,,0.00,WeatherCatV1.11B39,2013-02-21 00:30:00,
2013-02-20 19:35:00,27.5,11.8,29.74,WSW,249,3.0,3.0,51,0.00,,,0.00,WeatherCatV1.11B39,2013-02-21 00:35:00,
2013-02-20 19:40:00,27.5,11.8,29.74,SSW,208,2.0,4.0,51,0.00,,,0.00,WeatherCatV1.11B39,2013-02-21 00:40:00,
2013-02-20 19:45:00,27.5,11.8,29.74,SSE,154,1.0,3.0,51,0.00,,,0.00,WeatherCatV1.11B39,2013-02-21 00:45:00,
2013-02-20 19:50:00,27.5,12.2,29.74,NNW,335,2.0,4.0,52,0.00,,,0.00,WeatherCatV1.11B39,2013-02-21 00:50:00,
2013-02-20 19:55:00,27.5,12.2,29.74,SW,235,6.0,8.0,52,0.00,,,0.00,WeatherCatV1.11B39,2013-02-21 00:55:00,
2013-02-20 20:00:00,27.6,11.9,29.74,SSW,193,2.0,5.0,51,0.00,,,0.00,WeatherCatV1.11B39,2013-02-21 01:00:00,
2013-02-20 20:05:00,27.6,12.3,29.74,South,172,3.0,6.0,52,0.00,,,0.00,WeatherCatV1.11B39,2013-02-21 01:05:00,
2013-02-20 20:10:00,27.6,12.7,29.74,SW,221,0.0,4.0,53,0.00,,,0.00,WeatherCatV1.11B39,2013-02-21 01:10:00,
2013-02-20 20:15:00,27.7,12.4,29.74,NW,320,2.0,4.0,52,0.00,,,0.00,WeatherCatV1.11B39,2013-02-21 01:15:00,
2013-02-20 20:20:00,27.8,12.5,29.75,SE,143,2.0,7.0,52,0.00,,,0.00,WeatherCatV1.11B39,2013-02-21 01:20:00,
2013-02-20 20:25:00,27.8,12.5,29.75,SSW,205,0.0,1.0,52,0.00,,,0.00,WeatherCatV1.11B39,2013-02-21 01:25:00,
2013-02-20 20:30:00,27.8,12.5,29.75,ESE,114,5.0,10.0,52,0.00,,,0.00,WeatherCatV1.11B39,2013-02-21 01:30:00,
2013-02-20 20:35:00,27.8,12.5,29.75,WSW,252,2.0,3.0,52,0.00,,,0.00,WeatherCatV1.11B39,2013-02-21 01:35:00,
2013-02-20 20:40:00,27.8,12.9,29.75,West,274,2.0,3.0,53,0.00,,,0.00,WeatherCatV1.11B39,2013-02-21 01:40:00,
2013-02-20 20:45:00,27.8,12.9,29.75,South,169,1.0,5.0,53,0.00,,,0.00,WeatherCatV1.11B39,2013-02-21 01:45:00,
2013-02-20 20:50:00,27.7,12.8,29.75,South,173,4.0,4.0,53,0.00,,,0.00,WeatherCatV1.11B39,2013-02-21 01:50:00,
2013-02-20 20:55:00,27.6,12.7,29.75,SW,217,1.0,5.0,53,0.00,,,0.00,WeatherCatV1.11B39,2013-02-21 01:55:00,
2013-02-20 21:00:00,27.5,13.1,29.75,SSE,155,1.0,3.0,54,0.00,,,0.00,WeatherCatV1.11B39,2013-02-21 02:00:00,
2013-02-20 21:05:00,27.3,12.9,29.75,NW,322,3.0,7.0,54,0.00,,,0.00,WeatherCatV1.11B39,2013-02-21 02:05:00,
2013-02-20 21:10:00,27.2,12.8,29.75,SE,129,0.0,3.0,54,0.00,,,0.00,WeatherCatV1.11B39,2013-02-21 02:10:00,
2013-02-20 21:15:00,27.0,13.0,29.75,North,6,3.0,4.0,55,0.00,,,0.00,WeatherCatV1.11B39,2013-02-21 02:15:00,
2013-02-20 21:20:00,26.9,13.3,29.76,South,183,0.0,1.0,56,0.00,,,0.00,WeatherCatV1.11B39,2013-02-21 02:20:00,
2013-02-20 21:25:00,26.7,13.1,29.76,North,9,0.0,7.0,56,0.00,,,0.00,WeatherCatV1.11B39,2013-02-21 02:25:00,
2013-02-20 21:30:00,26.7,13.1,29.76,SSW,194,2.0,4.0,56,0.00,,,0.00,WeatherCatV1.11B39,2013-02-21 02:30:00,
2013-02-20 21:35:00,26.6,13.0,29.76,SSW,205,2.0,2.0,56,0.00,,,0.00,WeatherCatV1.11B39,2013-02-21 02:35:00,
2013-02-20 21:40:00,26.5,13.0,29.76,NNE,20,2.0,2.0,56,0.00,,,0.00,WeatherCatV1.11B39,2013-02-21 02:40:00,
2013-02-20 21:45:00,26.4,13.3,29.76,SW,231,2.0,5.0,57,0.00,,,0.00,WeatherCatV1.11B39,2013-02-21 02:45:00,
2013-02-20 21:50:00,26.3,13.2,29.77,South,184,2.0,5.0,57,0.00,,,0.00,WeatherCatV1.11B39,2013-02-21 02:50:00,
2013-02-20 21:55:00,26.2,13.1,29.77,South,183,0.0,6.0,57,0.00,,,0.00,WeatherCatV1.11B39,2013-02-21 02:55:00,
2013-02-20 22:00:00,26.1,13.4,29.77,SW,217,3.0,3.0,58,0.00,,,0.00,WeatherCatV1.11B39,2013-02-21 03:00:00,
2013-02-20 22:05:00,26.0,13.3,29.77,SW,217,1.0,2.0,58,0.00,,,0.00,WeatherCatV1.11B39,2013-02-21 03:05:00,
2013-02-20 22:10:00,25.9,13.2,29.77,SSW,207,0.0,4.0,58,0.00,,,0.00,WeatherCatV1.11B39,2013-02-21 03:10:00,
2013-02-20 22:15:00,25.9,13.6,29.77,SW,233,0.0,1.0,59,0.00,,,0.00,WeatherCatV1.11B39,2013-02-21 03:15:00,
2013-02-20 22:20:00,25.9,13.6,29.77,South,181,2.0,4.0,59,0.00,,,0.00,WeatherCatV1.11B39,2013-02-21 03:20:00,
2013-02-20 22:25:00,26.1,13.4,29.78,WSW,250,1.0,6.0,58,0.00,,,0.00,WeatherCatV1.11B39,2013-02-21 03:25:00,
2013-02-20 22:30:00,26.2,13.9,29.78,NE,51,0.0,5.0,59,0.00,,,0.00,WeatherCatV1.11B39,2013-02-21 03:30:00,
2013-02-20 22:35:00,26.2,13.9,29.78,SW,227,0.0,1.0,59,0.00,,,0.00,WeatherCatV1.11B39,2013-02-21 03:35:00,
2013-02-20 22:40:00,26.2,13.9,29.78,SSW,211,2.0,5.0,59,0.00,,,0.00,WeatherCatV1.11B39,2013-02-21 03:40:00,
2013-02-20 22:45:00,26.2,13.9,29.78,SSW,204,2.0,5.0,59,0.00,,,0.00,WeatherCatV1.11B39,2013-02-21 03:45:00,
2013-02-20 22:50:00,26.3,13.9,29.79,SW,219,4.0,4.0,59,0.00,,,0.00,WeatherCatV1.11B39,2013-02-21 03:50:00,
2013-02-20 22:55:00,26.3,13.9,29.79,SSE,150,6.0,7.0,59,0.00,,,0.00,WeatherCatV1.11B39,2013-02-21 03:55:00,
2013-02-20 22:57:00,26.3,13.9,29.79,SSE,165,2.0,7.0,59,0.00,,,0.00,WeatherCatV1.11B39,2013-02-21 03:57:00,
2013-02-20 23:02:00,26.4,14.4,29.79,SSW,210,3.0,3.0,60,0.00,,,0.00,WeatherCatV1.11B39,2013-02-21 04:02:00,
2013-02-20 23:07:00,26.4,14.4,29.80,ESE,102,0.0,4.0,60,0.00,,,0.00,WeatherCatV1.11B39,2013-02-21 04:07:00,
2013-02-20 23:12:00,26.4,14.4,29.80,SSE,156,0.0,2.0,60,0.00,,,0.00,WeatherCatV1.11B39,2013-02-21 04:12:00,
2013-02-20 23:17:00,26.5,14.5,29.80,SW,228,4.0,7.0,60,0.00,,,0.00,WeatherCatV1.11B39,2013-02-21 04:17:00,
2013-02-20 23:22:00,26.5,14.9,29.79,SSW,212,2.0,5.0,61,0.00,,,0.00,WeatherCatV1.11B39,2013-02-21 04:22:00,
2013-02-20 23:27:00,26.5,14.9,29.79,North,349,3.0,5.0,61,0.00,,,0.00,WeatherCatV1.11B39,2013-02-21 04:27:00,
2013-02-20 23:32:00,26.5,14.9,29.80,NNW,346,2.0,9.0,61,0.00,,,0.00,WeatherCatV1.11B39,2013-02-21 04:32:00,
2013-02-20 23:37:00,26.5,14.9,29.80,SSE,163,2.0,6.0,61,0.00,,,0.00,WeatherCatV1.11B39,2013-02-21 04:37:00,
2013-02-20 23:42:00,26.5,14.9,29.80,SW,217,4.0,5.0,61,0.00,,,0.00,WeatherCatV1.11B39,2013-02-21 04:42:00,
2013-02-20 23:47:00,26.6,15.0,29.80,SSW,203,1.0,5.0,61,0.00,,,0.00,WeatherCatV1.11B39,2013-02-21 04:47:00,
2013-02-20 23:52:00,26.5,14.9,29.80,North,4,0.0,1.0,61,0.00,,,0.00,WeatherCatV1.11B39,2013-02-21 04:52:00,
2013-02-20 23:58:00,26.5,15.3,29.80,North,6,1.0,5.0,62,0.00,,,0.00,WeatherCatV1.11B39,2013-02-21 04:58:00,